Terug naar catalogus

YAOGAN-31 A

ActiefMilitairLEO
NORAD 43275·PAYLOAD·🇨🇳 China

Gelanceerd Apr 10, 2018 vanaf Jiuquan Satellite Launch Center

Loading…

Volgende Passages (komende 24 uur)

TLE

VersSource: Space-Track

Epoch: Sep 14, 2026, 14:57 UTC

1 43275U 18034A   26257.62321628  .00000016  00000-0  14155-3 0  9995
2 43275  63.3925 221.1365 0283092   7.7047 352.8192 13.45466679414134

Volg YAOGAN-31 A in realtime met AllMySat

Download on the App Store